This is the latest recevied weather packets stored in our database for station/object OE3XOC-11. If no packets are shown the sender has not sent any weather packets the latest 10 day(s).
| Time | Temp. | Humidity | Pressure | Rain* | Wind** | Luminosity | Snow |
|---|---|---|---|---|---|---|---|
| 1777206696 | 17.22° C | 24% | 966.4 hPa | - | - | - | - |
| 1777206396 | 17.22° C | 24% | 966.4 hPa | - | - | - | - |
| 1777206096 | 16.67° C | 25% | 966.4 hPa | - | - | - | - |
| 1777205796 | 16.11° C | 25% | 966.4 hPa | - | - | - | - |
| 1777205496 | 16.67° C | 25% | 966.3 hPa | - | - | - | - |
| 1777205196 | 16.67° C | 26% | 966.3 hPa | - | - | - | - |
| 1777204896 | 16.11° C | 26% | 966.3 hPa | - | - | - | - |
| 1777204596 | 16.67° C | 26% | 966.3 hPa | - | - | - | - |
| 1777204296 | 16.11° C | 26% | 966.3 hPa | - | - | - | - |
| 1777203996 | 16.11° C | 27% | 966.3 hPa | - | - | - | - |
| 1777203696 | 15.56° C | 27% | 966.2 hPa | - | - | - | - |
| 1777203396 | 16.11° C | 27% | 966.2 hPa | - | - | - | - |
| 1777203096 | 15.56° C | 28% | 966.3 hPa | - | - | - | - |
| 1777202796 | 15.56° C | 28% | 966.3 hPa | - | - | - | - |
| 1777202496 | 15° C | 29% | 966.2 hPa | - | - | - | - |
| 1777202196 | 15.56° C | 28% | 966.3 hPa | - | - | - | - |
| 1777201896 | 15° C | 29% | 966.4 hPa | - | - | - | - |
| 1777201596 | 15.56° C | 29% | 966.2 hPa | - | - | - | - |
| 1777201296 | 15° C | 29% | 966.2 hPa | - | - | - | - |
| 1777200996 | 15.56° C | 30% | 966.2 hPa | - | - | - | - |
| 1777200696 | 15° C | 31% | 966.3 hPa | - | - | - | - |
| 1777200396 | 15° C | 31% | 966.2 hPa | - | - | - | - |
| 1777200096 | 14.44° C | 31% | 966.3 hPa | - | - | - | - |
| 1777199796 | 15° C | 32% | 966.2 hPa | - | - | - | - |
| 1777199496 | 14.44° C | 33% | 966.3 hPa | - | - | - | - |
* Rain since midnight (hover to see other rain measurements)
** Current wind speed in m/s (hover to see current wind gust speed)